Location: Brachbach
(49.1847°N, 9.7240°E)
Time: 05:13:53
(UTC+00:00)

PCSat - Pass Details

Date: 20 March 2026
Orbit: 780 x 790 km, 67.1° (Epoch: 13 April)

Event Time Altitude Azimuth Distance (km) Brightness Sun altitude
Rises 04:38:39 0° 325° (NW) 3,297 12.5 -8.3°
Reaches altitude 10° 04:41:06 10° 329° (NNW) 2,364 11.8 -7.9°
Maximum altitude 04:46:29 64° 51° (NE) 879 10.1 -7.0°
Drops below altitude 10° 04:51:50 10° 133° (SE) 2,348 12.7 -6.1°
Sets 04:54:16 0° 136° (SE) 3,273 13.4 -5.7°
